Hourly Weather Otmice

Today, 8 May, Saturday

Time Temperature Precipitation Wind Pressure Humidity
00:00 +1°C° 0 mm 3 mps 745 mmHg 90%
01:00 +1°C° 0 mm 3 mps 745 mmHg 90%
02:00 +1°C° 0 mm 3 mps 745 mmHg 90%
03:00 +1°C° 0 mm 3 mps 745 mmHg 90%
04:00 +1°C° 0 mm 2 mps 746 mmHg 90%
05:00 +2°C° 0 mm 3 mps 746 mmHg 83%
06:00 +4°C° 0 mm 3 mps 746 mmHg 76%
07:00 +5°C° 0 mm 4 mps 747 mmHg 69%
08:00 +7°C° 0.1 mm 4 mps 747 mmHg 62%
09:00 +8°C° 0.1 mm 5 mps 747 mmHg 55%
10:00 +9°C° 0.1 mm 5 mps 747 mmHg 49%
11:00 +10°C° 0 mm 5 mps 747 mmHg 48%
12:00 +11°C° 0 mm 4 mps 747 mmHg 47%
13:00 +12°C° 0 mm 4 mps 747 mmHg 46%
14:00 +12°C° 0.1 mm 4 mps 747 mmHg 49%
15:00 +12°C° 0.1 mm 3 mps 747 mmHg 52%
16:00 +12°C° 0.1 mm 3 mps 747 mmHg 54%
17:00 +10°C° 0 mm 2 mps 747 mmHg 61%
18:00 +10°C° 0 mm 1 mps 747 mmHg 67%
19:00 +8°C° 0 mm 0 mps 747 mmHg 73%
20:00 +8°C° 0 mm 1 mps 747 mmHg 74%
21:00 +6°C° 0 mm 2 mps 747 mmHg 76%
22:00 +5°C° 0 mm 2 mps 747 mmHg 78%
23:00 +5°C° 0 mm 2 mps 747 mmHg 78%

Tomorrow, 9 May, Sunday

Time Temperature Precipitation Wind Pressure Humidity
00:00 +4°C° 0 mm 3 mps 747 mmHg 78%
01:00 +4°C° 0 mm 3 mps 747 mmHg 78%
02:00 +4°C° 0 mm 3 mps 747 mmHg 77%
03:00 +4°C° 0 mm 3 mps 746 mmHg 75%
04:00 +4°C° 0 mm 4 mps 746 mmHg 74%
05:00 +6°C° 0 mm 4 mps 746 mmHg 70%
06:00 +7°C° 0 mm 5 mps 746 mmHg 66%
07:00 +9°C° 0 mm 5 mps 746 mmHg 62%
08:00 +11°C° 0 mm 6 mps 746 mmHg 58%
09:00 +14°C° 0 mm 6 mps 746 mmHg 55%
10:00 +16°C° 0 mm 7 mps 745 mmHg 51%
11:00 +17°C° 0 mm 7 mps 745 mmHg 50%
12:00 +18°C° 0 mm 7 mps 745 mmHg 49%
13:00 +20°C° 0 mm 7 mps 745 mmHg 48%
14:00 +20°C° 0 mm 7 mps 745 mmHg 49%
15:00 +20°C° 0 mm 7 mps 745 mmHg 51%
16:00 +20°C° 0 mm 6 mps 744 mmHg 53%
17:00 +17°C° 0 mm 6 mps 744 mmHg 56%
18:00 +16°C° 0 mm 6 mps 744 mmHg 58%
19:00 +14°C° 0 mm 5 mps 744 mmHg 61%
20:00 +13°C° 0 mm 5 mps 744 mmHg 61%
21:00 +12°C° 0 mm 5 mps 744 mmHg 62%
22:00 +12°C° 0 mm 5 mps 744 mmHg 62%
23:00 +11°C° 0 mm 4 mps 744 mmHg 65%

Day after tomorrow, 10 May, Monday

Time Temperature Precipitation Wind Pressure Humidity
00:00 +10°C° 0 mm 4 mps 744 mmHg 68%
01:00 +10°C° 0 mm 4 mps 743 mmHg 70%
02:00 +8°C° 0 mm 4 mps 743 mmHg 71%
03:00 +8°C° 0 mm 4 mps 743 mmHg 72%
04:00 +9°C° 0 mm 3 mps 743 mmHg 73%
05:00 +10°C° 0 mm 4 mps 743 mmHg 68%
06:00 +12°C° 0 mm 4 mps 743 mmHg 64%
07:00 +14°C° 0 mm 4 mps 743 mmHg 59%
08:00 +16°C° 0 mm 5 mps 742 mmHg 55%
09:00 +19°C° 0 mm 6 mps 742 mmHg 50%
10:00 +21°C° 0 mm 7 mps 742 mmHg 46%
11:00 +22°C° 0 mm 7 mps 742 mmHg 47%
12:00 +23°C° 0 mm 7 mps 742 mmHg 48%
13:00 +24°C° 0 mm 8 mps 742 mmHg 49%
14:00 +23°C° 0 mm 7 mps 742 mmHg 52%
15:00 +23°C° 0 mm 7 mps 742 mmHg 55%
16:00 +22°C° 0 mm 7 mps 742 mmHg 58%
17:00 +21°C° 0 mm 6 mps 742 mmHg 62%
18:00 +20°C° 0 mm 5 mps 742 mmHg 67%
19:00 +18°C° 0 mm 4 mps 742 mmHg 72%
20:00 +17°C° 0 mm 3 mps 742 mmHg 73%
21:00 +17°C° 0 mm 3 mps 742 mmHg 75%
22:00 +16°C° 0 mm 3 mps 742 mmHg 77%
23:00 +14°C° 0 mm 3 mps 742 mmHg 77%

11 May, Tuesday

Time Temperature Precipitation Wind Pressure Humidity
00:00 +14°C° 0 mm 3 mps 741 mmHg 77%
01:00 +14°C° 0 mm 3 mps 741 mmHg 78%
02:00 +14°C° 0 mm 4 mps 740 mmHg 78%
03:00 +13°C° 0 mm 4 mps 740 mmHg 77%
04:00 +13°C° 0 mm 4 mps 739 mmHg 77%
05:00 +15°C° 0 mm 4 mps 740 mmHg 74%
06:00 +16°C° 0 mm 5 mps 740 mmHg 70%
07:00 +19°C° 0 mm 5 mps 740 mmHg 67%
08:00 +20°C° 0 mm 6 mps 740 mmHg 61%
09:00 +22°C° 0 mm 6 mps 740 mmHg 55%
10:00 +24°C° 0 mm 7 mps 740 mmHg 50%
11:00 +26°C° 0 mm 7 mps 740 mmHg 48%
12:00 +27°C° 0 mm 7 mps 739 mmHg 47%
13:00 +28°C° 0 mm 7 mps 739 mmHg 45%
14:00 +27°C° 0 mm 7 mps 739 mmHg 46%
15:00 +27°C° 0 mm 6 mps 739 mmHg 47%
16:00 +27°C° 0 mm 5 mps 739 mmHg 48%
17:00 +25°C° 0 mm 4 mps 738 mmHg 55%
18:00 +22°C° 0 mm 4 mps 738 mmHg 63%
19:00 +20°C° 0 mm 3 mps 738 mmHg 70%
20:00 +19°C° 0 mm 3 mps 738 mmHg 72%
21:00 +18°C° 0 mm 3 mps 738 mmHg 74%
22:00 +17°C° 0 mm 3 mps 738 mmHg 76%
23:00 +16°C° 0 mm 3 mps 738 mmHg 78%

12 May, Wednesday

Time Temperature Precipitation Wind Pressure Humidity
00:00 +16°C° 0 mm 3 mps 738 mmHg 81%
01:00 +15°C° 0 mm 2 mps 738 mmHg 83%
02:00 +15°C° 0 mm 2 mps 738 mmHg 85%
03:00 +14°C° 0 mm 2 mps 737 mmHg 87%
04:00 +14°C° 0 mm 2 mps 737 mmHg 89%
05:00 +16°C° 0 mm 2 mps 737 mmHg 83%
06:00 +17°C° 0 mm 2 mps 737 mmHg 77%
07:00 +19°C° 0 mm 3 mps 737 mmHg 71%
08:00 +21°C° 0 mm 2 mps 737 mmHg 65%
09:00 +23°C° 0 mm 2 mps 737 mmHg 59%
10:00 +25°C° 0 mm 2 mps 737 mmHg 52%
11:00 +25°C° 0 mm 2 mps 737 mmHg 51%
12:00 +25°C° 0 mm 2 mps 736 mmHg 51%
13:00 +26°C° 0 mm 2 mps 736 mmHg 50%
14:00 +25°C° 0.1 mm 3 mps 736 mmHg 54%
15:00 +23°C° 0.1 mm 4 mps 735 mmHg 58%
16:00 +22°C° 0.1 mm 4 mps 735 mmHg 62%
17:00 +21°C° 0.3 mm 4 mps 735 mmHg 66%
18:00 +19°C° 0.3 mm 4 mps 735 mmHg 70%
19:00 +17°C° 0.3 mm 5 mps 736 mmHg 74%
20:00 +17°C° 0 mm 4 mps 736 mmHg 73%
21:00 +14°C° 0 mm 4 mps 736 mmHg 73%
22:00 +13°C° 0 mm 3 mps 736 mmHg 73%
23:00 +12°C° 0 mm 3 mps 736 mmHg 77%

13 May, Thursday

Time Temperature Precipitation Wind Pressure Humidity
00:00 +11°C° 0 mm 3 mps 736 mmHg 80%
01:00 +11°C° 0 mm 3 mps 736 mmHg 84%
02:00 +10°C° 0 mm 3 mps 736 mmHg 85%
03:00 +9°C° 0 mm 3 mps 736 mmHg 85%
04:00 +9°C° 0 mm 3 mps 736 mmHg 85%
05:00 +10°C° 0 mm 4 mps 736 mmHg 81%
06:00 +11°C° 0 mm 4 mps 736 mmHg 76%
07:00 +12°C° 0 mm 4 mps 736 mmHg 72%
08:00 +13°C° 0 mm 4 mps 736 mmHg 65%
09:00 +14°C° 0 mm 5 mps 736 mmHg 59%
10:00 +16°C° 0 mm 5 mps 736 mmHg 53%
11:00 +16°C° 0 mm 5 mps 736 mmHg 49%
12:00 +18°C° 0 mm 4 mps 736 mmHg 46%
13:00 +19°C° 0 mm 4 mps 735 mmHg 43%
14:00 +18°C° 0 mm 4 mps 736 mmHg 47%
15:00 +17°C° 0 mm 4 mps 736 mmHg 51%
16:00 +15°C° 0 mm 4 mps 736 mmHg 55%
17:00 +14°C° 0 mm 4 mps 736 mmHg 61%
18:00 +13°C° 0 mm 3 mps 736 mmHg 66%
19:00 +13°C° 0 mm 2 mps 736 mmHg 72%
20:00 +12°C° 0 mm 2 mps 737 mmHg 75%
21:00 +11°C° 0 mm 1 mps 737 mmHg 78%
22:00 +10°C° 0 mm 1 mps 737 mmHg 81%
23:00 +10°C° 0 mm 1 mps 737 mmHg 80%
Show more

We Need Your Consent

Meteoprog and our Service Providers may store and access personal data such as cookies, device identifiers or other similar technologies on your device and process such data to personalise content and ads, as well as provide social media features and to analyse the traffic.

  • Store and/or access information on your device

    Cookies, device identifiers or other information can be stored or accessed on your device for the purposes indicated above.

  • Personalised ads and content, ad and content measurement, audience insights, and products development

    Ads and content can be personalised based on a profile. More data can be added to better personalise ads and content. Ad and content performance can be measured. Insights about the audience who saw the ads and content can be derived. Such data can be used to develop or improve user’s experience, systems and software.

By clicking ‘I Agree’ you will allow the use of indicated cookies, device identifiers, web beacons or other similar technologies. Your settings can be changed in the browser on your device.

For certain purposes, legitimate interests may be relied on, rather than consent. You can read more about this in our Privacy and Cookie Policy.